Time,TemperatureF,DewpointF,PressureIn,WindDirection,WindDirectionDegrees,WindSpeedMPH,WindSpeedGustMPH,Humidity,HourlyPrecipIn,Conditions,Clouds,dailyrainin,SoftwareType,DateUTC
2013-11-25 00:06:00,21.0,17.0,29.96,North,-999,0.0,-999.0,83,-99.99,,,0.03,weatherlink.com 1.10,2013-11-25 07:06:00,
2013-11-25 00:20:00,21.1,17.0,29.96,North,-999,0.0,-999.0,84,-99.99,,,0.03,weatherlink.com 1.10,2013-11-25 07:20:00,
2013-11-25 00:35:00,21.2,17.0,29.93,NW,310,0.0,-999.0,84,-99.99,,,0.00,weatherlink.com 1.10,2013-11-25 07:35:00,
2013-11-25 00:50:00,21.4,17.0,29.94,NW,310,0.0,-999.0,84,-99.99,,,0.00,weatherlink.com 1.10,2013-11-25 07:50:00,
2013-11-25 01:05:00,21.7,17.0,29.95,NW,310,0.0,-999.0,83,-99.99,,,0.00,weatherlink.com 1.10,2013-11-25 08:05:00,
2013-11-25 01:20:00,21.9,18.0,29.95,North,-999,0.0,-999.0,83,-99.99,,,0.00,weatherlink.com 1.10,2013-11-25 08:20:00,
2013-11-25 01:35:00,22.3,17.0,30.01,NW,310,0.0,-999.0,81,-99.99,,,0.00,weatherlink.com 1.10,2013-11-25 08:35:00,
2013-11-25 01:50:00,22.5,17.0,29.99,NW,310,0.0,-999.0,79,-99.99,,,0.00,weatherlink.com 1.10,2013-11-25 08:50:00,
2013-11-25 02:05:00,22.5,17.0,30.00,NW,310,0.0,-999.0,78,-99.99,,,0.00,weatherlink.com 1.10,2013-11-25 09:05:00,
2013-11-25 02:20:00,22.5,16.0,30.01,North,-999,0.0,-999.0,76,-99.99,,,0.00,weatherlink.com 1.10,2013-11-25 09:20:00,
2013-11-25 02:36:00,22.5,15.0,30.04,North,-999,0.0,-999.0,73,-99.99,,,0.00,weatherlink.com 1.10,2013-11-25 09:36:00,
2013-11-25 02:51:00,22.3,15.0,30.06,NW,310,0.0,-999.0,73,-99.99,,,0.00,weatherlink.com 1.10,2013-11-25 09:51:00,
2013-11-25 03:06:00,21.8,14.0,30.07,North,-999,0.0,-999.0,72,-99.99,,,0.00,weatherlink.com 1.10,2013-11-25 10:06:00,
2013-11-25 03:21:00,21.4,14.0,30.07,North,-999,0.0,-999.0,73,-99.99,,,0.00,weatherlink.com 1.10,2013-11-25 10:21:00,
2013-11-25 03:36:00,20.7,13.0,30.09,North,-999,0.0,-999.0,72,-99.99,,,0.00,weatherlink.com 1.10,2013-11-25 10:36:00,
2013-11-25 03:51:00,20.0,12.0,30.13,North,-999,0.0,-999.0,71,-99.99,,,0.00,weatherlink.com 1.10,2013-11-25 10:51:00,
2013-11-25 04:06:00,19.1,11.0,30.13,NW,310,0.0,-999.0,72,-99.99,,,0.00,weatherlink.com 1.10,2013-11-25 11:06:00,
2013-11-25 04:16:00,18.7,11.0,30.13,North,-999,0.0,-999.0,73,-99.99,,,0.00,weatherlink.com 1.10,2013-11-25 11:16:00,
2013-11-25 04:23:00,18.1,11.0,30.16,North,-999,0.0,-999.0,74,-99.99,,,0.00,weatherlink.com 1.10,2013-11-25 11:23:00,
2013-11-25 04:27:00,18.0,11.0,30.16,North,-999,0.0,-999.0,75,-99.99,,,0.00,weatherlink.com 1.10,2013-11-25 11:27:00,
2013-11-25 04:42:00,17.5,11.0,30.17,North,-999,0.0,-999.0,75,-99.99,,,0.00,weatherlink.com 1.10,2013-11-25 11:42:00,
2013-11-25 04:57:00,16.8,10.0,30.21,NW,310,0.0,-999.0,75,-99.99,,,0.00,weatherlink.com 1.10,2013-11-25 11:57:00,
2013-11-25 05:12:00,15.9,9.0,30.21,North,-999,0.0,-999.0,74,-99.99,,,0.00,weatherlink.com 1.10,2013-11-25 12:12:00,
2013-11-25 05:27:00,14.5,7.0,30.24,NW,310,0.0,-999.0,73,-99.99,,,0.00,weatherlink.com 1.10,2013-11-25 12:27:00,
2013-11-25 05:42:00,13.3,6.0,30.27,North,-999,0.0,-999.0,73,-99.99,,,0.00,weatherlink.com 1.10,2013-11-25 12:42:00,
2013-11-25 05:57:00,12.2,5.0,30.30,North,-999,0.0,-999.0,73,-99.99,,,0.00,weatherlink.com 1.10,2013-11-25 12:57:00,
2013-11-25 06:12:00,11.0,4.0,30.31,North,-999,0.0,-999.0,74,-99.99,,,0.00,weatherlink.com 1.10,2013-11-25 13:12:00,
2013-11-25 06:27:00,10.2,4.0,30.34,North,-999,0.0,-999.0,76,-99.99,,,0.00,weatherlink.com 1.10,2013-11-25 13:27:00,
2013-11-25 06:43:00,9.6,4.0,30.35,North,-999,0.0,-999.0,76,-99.99,,,0.00,weatherlink.com 1.10,2013-11-25 13:43:00,
2013-11-25 06:58:00,8.9,3.0,30.35,NW,310,0.0,-999.0,76,-99.99,,,0.00,weatherlink.com 1.10,2013-11-25 13:58:00,
2013-11-25 07:13:00,8.5,3.0,30.36,North,-999,0.0,-999.0,77,-99.99,,,0.00,weatherlink.com 1.10,2013-11-25 14:13:00,
2013-11-25 07:28:00,8.4,3.0,30.39,North,-999,0.0,-999.0,78,-99.99,,,0.00,weatherlink.com 1.10,2013-11-25 14:28:00,
2013-11-25 07:43:00,9.0,4.0,30.40,North,-999,0.0,-999.0,81,-99.99,,,0.00,weatherlink.com 1.10,2013-11-25 14:43:00,
2013-11-25 07:58:00,9.9,6.0,30.38,North,-999,0.0,-999.0,82,-99.99,,,0.00,weatherlink.com 1.10,2013-11-25 14:58:00,
2013-11-25 08:13:00,10.8,6.0,30.38,North,-999,0.0,-999.0,82,-99.99,,,0.00,weatherlink.com 1.10,2013-11-25 15:13:00,
2013-11-25 08:28:00,11.8,8.0,30.36,North,-999,0.0,-999.0,83,-99.99,,,0.00,weatherlink.com 1.10,2013-11-25 15:28:00,
2013-11-25 08:43:00,13.1,9.0,30.37,North,-999,0.0,-999.0,84,-99.99,,,0.00,weatherlink.com 1.10,2013-11-25 15:43:00,
2013-11-25 08:58:00,14.4,10.0,30.36,NW,310,0.0,-999.0,84,-99.99,,,0.00,weatherlink.com 1.10,2013-11-25 15:58:00,
2013-11-25 09:13:00,15.7,12.0,30.35,North,-999,0.0,-999.0,84,-99.99,,,0.00,weatherlink.com 1.10,2013-11-25 16:13:00,
2013-11-25 09:28:00,17.1,13.0,30.35,NW,310,0.0,-999.0,83,-99.99,,,0.00,weatherlink.com 1.10,2013-11-25 16:28:00,
2013-11-25 09:43:00,18.3,13.0,30.36,North,-999,0.0,-999.0,81,-99.99,,,0.00,weatherlink.com 1.10,2013-11-25 16:43:00,
2013-11-25 09:58:00,19.6,14.0,30.34,North,-999,0.0,-999.0,78,-99.99,,,0.00,weatherlink.com 1.10,2013-11-25 16:58:00,
2013-11-25 10:13:00,20.9,14.0,30.32,North,-999,0.0,-999.0,74,-99.99,,,0.00,weatherlink.com 1.10,2013-11-25 17:13:00,
2013-11-25 10:28:00,21.9,14.0,30.33,NW,310,0.0,-999.0,71,-99.99,,,0.00,weatherlink.com 1.10,2013-11-25 17:28:00,
2013-11-25 10:43:00,22.6,15.0,30.31,NW,310,0.0,-999.0,72,-99.99,,,0.00,weatherlink.com 1.10,2013-11-25 17:43:00,
2013-11-25 10:58:00,23.2,15.0,30.31,NW,310,0.0,-999.0,71,-99.99,,,0.00,weatherlink.com 1.10,2013-11-25 17:58:00,
2013-11-25 11:13:00,23.5,15.0,30.32,NW,310,0.0,-999.0,70,-99.99,,,0.00,weatherlink.com 1.10,2013-11-25 18:13:00,
2013-11-25 11:28:00,23.8,15.0,30.32,North,-999,0.0,-999.0,70,-99.99,,,0.00,weatherlink.com 1.10,2013-11-25 18:28:00,
2013-11-25 11:43:00,23.9,15.0,30.32,NW,310,0.0,-999.0,69,-99.99,,,0.00,weatherlink.com 1.10,2013-11-25 18:43:00,
2013-11-25 11:58:00,24.3,15.0,30.31,North,-999,0.0,-999.0,68,-99.99,,,0.00,weatherlink.com 1.10,2013-11-25 18:58:00,
2013-11-25 12:13:00,24.9,15.0,30.29,North,-999,0.0,-999.0,66,-99.99,,,0.00,weatherlink.com 1.10,2013-11-25 19:13:00,
2013-11-25 12:28:00,24.5,15.0,30.29,NW,310,0.0,-999.0,66,-99.99,,,0.00,weatherlink.com 1.10,2013-11-25 19:28:00,
2013-11-25 12:43:00,24.8,15.0,30.29,North,-999,0.0,-999.0,66,-99.99,,,0.01,weatherlink.com 1.10,2013-11-25 19:43:00,
2013-11-25 12:58:00,25.1,15.0,30.29,North,-999,0.0,-999.0,66,-99.99,,,0.01,weatherlink.com 1.10,2013-11-25 19:58:00,
2013-11-25 13:13:00,25.1,15.0,30.28,North,-999,0.0,-999.0,66,-99.99,,,0.01,weatherlink.com 1.10,2013-11-25 20:13:00,
2013-11-25 13:28:00,24.6,15.0,30.26,North,-999,0.0,-999.0,66,-99.99,,,0.01,weatherlink.com 1.10,2013-11-25 20:28:00,
2013-11-25 13:43:00,24.6,15.0,30.26,NW,310,0.0,-999.0,66,-99.99,,,0.01,weatherlink.com 1.10,2013-11-25 20:43:00,
2013-11-25 13:58:00,24.5,15.0,30.25,NW,310,0.0,-999.0,67,-99.99,,,0.01,weatherlink.com 1.10,2013-11-25 20:58:00,
2013-11-25 14:13:00,24.0,15.0,30.28,NW,310,0.0,-999.0,69,-99.99,,,0.01,weatherlink.com 1.10,2013-11-25 21:13:00,
2013-11-25 14:28:00,24.6,16.0,30.28,North,-999,0.0,-999.0,69,-99.99,,,0.01,weatherlink.com 1.10,2013-11-25 21:28:00,
2013-11-25 14:43:00,24.8,16.0,30.28,North,-999,0.0,-999.0,68,-99.99,,,0.01,weatherlink.com 1.10,2013-11-25 21:43:00,
2013-11-25 14:58:00,24.8,16.0,30.29,North,-999,0.0,-999.0,68,-99.99,,,0.01,weatherlink.com 1.10,2013-11-25 21:58:00,
2013-11-25 15:13:00,24.4,16.0,30.30,North,-999,0.0,-999.0,69,-99.99,,,0.01,weatherlink.com 1.10,2013-11-25 22:13:00,
2013-11-25 15:28:00,24.0,16.0,30.36,NW,310,0.0,-999.0,70,-99.99,,,0.01,weatherlink.com 1.10,2013-11-25 22:28:00,
2013-11-25 15:43:00,23.4,15.0,30.38,NW,310,0.0,-999.0,71,-99.99,,,0.01,weatherlink.com 1.10,2013-11-25 22:43:00,
2013-11-25 15:58:00,23.0,15.0,30.38,NW,310,0.0,-999.0,71,-99.99,,,0.01,weatherlink.com 1.10,2013-11-25 22:58:00,
2013-11-25 16:13:00,22.6,15.0,30.39,North,-999,0.0,-999.0,72,-99.99,,,0.01,weatherlink.com 1.10,2013-11-25 23:13:00,
2013-11-25 16:28:00,22.3,15.0,30.44,North,-999,0.0,-999.0,72,-99.99,,,0.01,weatherlink.com 1.10,2013-11-25 23:28:00,
2013-11-25 16:43:00,21.8,14.0,30.44,North,-999,0.0,-999.0,73,-99.99,,,0.01,weatherlink.com 1.10,2013-11-25 23:43:00,
2013-11-25 16:58:00,21.5,14.0,30.45,North,-999,0.0,-999.0,73,-99.99,,,0.01,weatherlink.com 1.10,2013-11-25 23:58:00,
2013-11-25 17:13:00,21.1,14.0,30.45,North,-999,0.0,-999.0,73,-99.99,,,0.01,weatherlink.com 1.10,2013-11-26 00:13:00,
2013-11-25 17:28:00,20.6,14.0,30.53,NW,310,0.0,-999.0,75,-99.99,,,0.01,weatherlink.com 1.10,2013-11-26 00:28:00,
2013-11-25 17:43:00,20.3,14.0,30.54,NW,310,0.0,-999.0,75,-99.99,,,0.01,weatherlink.com 1.10,2013-11-26 00:43:00,
2013-11-25 17:58:00,19.9,13.0,30.54,NW,310,0.0,-999.0,75,-99.99,,,0.01,weatherlink.com 1.10,2013-11-26 00:58:00,
2013-11-25 18:13:00,19.2,12.0,30.57,NW,310,0.0,-999.0,74,-99.99,,,0.01,weatherlink.com 1.10,2013-11-26 01:13:00,
2013-11-25 18:28:00,18.4,11.0,30.60,North,-999,0.0,-999.0,73,-99.99,,,0.01,weatherlink.com 1.10,2013-11-26 01:28:00,
2013-11-25 18:43:00,17.6,11.0,30.60,North,-999,0.0,-999.0,74,-99.99,,,0.01,weatherlink.com 1.10,2013-11-26 01:43:00,
2013-11-25 18:58:00,16.9,10.0,30.64,NW,310,0.0,-999.0,74,-99.99,,,0.01,weatherlink.com 1.10,2013-11-26 01:58:00,
2013-11-25 19:13:00,15.8,9.0,30.64,North,-999,0.0,-999.0,73,-99.99,,,0.01,weatherlink.com 1.10,2013-11-26 02:13:00,
2013-11-25 19:28:00,14.7,8.0,30.62,North,-999,0.0,-999.0,74,-99.99,,,0.01,weatherlink.com 1.10,2013-11-26 02:28:00,
2013-11-25 19:43:00,13.7,7.0,30.63,North,-999,0.0,-999.0,75,-99.99,,,0.01,weatherlink.com 1.10,2013-11-26 02:43:00,
2013-11-25 19:58:00,13.2,7.0,30.66,North,-999,0.0,-999.0,75,-99.99,,,0.01,weatherlink.com 1.10,2013-11-26 02:58:00,
2013-11-25 20:13:00,12.8,7.0,30.66,NW,310,0.0,-999.0,76,-99.99,,,0.01,weatherlink.com 1.10,2013-11-26 03:13:00,
2013-11-25 20:28:00,12.3,6.0,30.61,NW,310,0.0,-999.0,75,-99.99,,,0.01,weatherlink.com 1.10,2013-11-26 03:28:00,
2013-11-25 20:43:00,11.7,5.0,30.61,NW,310,0.0,-999.0,75,-99.99,,,0.01,weatherlink.com 1.10,2013-11-26 03:43:00,
2013-11-25 20:58:00,11.1,5.0,30.61,North,-999,0.0,-999.0,75,-99.99,,,0.01,weatherlink.com 1.10,2013-11-26 03:58:00,
2013-11-25 21:13:00,10.4,4.0,30.65,North,-999,0.0,-999.0,75,-99.99,,,0.01,weatherlink.com 1.10,2013-11-26 04:13:00,
2013-11-25 21:28:00,9.7,3.0,30.58,North,-999,0.0,-999.0,75,-99.99,,,0.01,weatherlink.com 1.10,2013-11-26 04:28:00,
2013-11-25 21:43:00,8.9,2.0,30.61,North,-999,0.0,-999.0,74,-99.99,,,0.01,weatherlink.com 1.10,2013-11-26 04:43:00,
2013-11-25 21:58:00,8.2,2.0,30.61,NW,310,0.0,-999.0,74,-99.99,,,0.01,weatherlink.com 1.10,2013-11-26 04:58:00,
2013-11-25 22:14:00,7.5,1.0,30.61,NW,310,0.0,-999.0,74,-99.99,,,0.01,weatherlink.com 1.10,2013-11-26 05:14:00,
2013-11-25 22:29:00,6.8,1.0,30.61,NW,310,0.0,-999.0,75,-99.99,,,0.01,weatherlink.com 1.10,2013-11-26 05:29:00,
2013-11-25 22:44:00,6.2,0.0,30.62,North,-999,0.0,-999.0,75,-99.99,,,0.01,weatherlink.com 1.10,2013-11-26 05:44:00,
2013-11-25 22:59:00,5.7,0.0,30.63,North,-999,0.0,-999.0,76,-99.99,,,0.01,weatherlink.com 1.10,2013-11-26 05:59:00,
2013-11-25 23:14:00,5.2,-1.0,30.65,North,-999,0.0,-999.0,77,-99.99,,,0.01,weatherlink.com 1.10,2013-11-26 06:14:00,
2013-11-25 23:29:00,4.9,-1.0,30.63,North,-999,0.0,-999.0,77,-99.99,,,0.01,weatherlink.com 1.10,2013-11-26 06:29:00,
2013-11-25 23:44:00,4.6,-1.0,30.63,NW,310,0.0,-999.0,77,-99.99,,,0.01,weatherlink.com 1.10,2013-11-26 06:44:00,
2013-11-25 23:59:00,4.2,-2.0,30.66,North,-999,0.0,-999.0,76,-99.99,,,0.01,weatherlink.com 1.10,2013-11-26 06:59:00,